Weather History for Iliamna, AK

Change the Weather History Date:

Saturday, March 1, 2014

  Actual Average Record
Temperature  
Mean Temperature 36 °F -  
Max Temperature 45 °F 29 °F 49 °F (1991)
Min Temperature 27 °F 12 °F -30 °F (1956)
Degree Days  
Heating Degree Days 29    
Moisture  
Dew Point 26 °F    
Average Humidity 75    
Maximum Humidity 96    
Minimum Humidity 31    
Precipitation  
Precipitation 0.00 in - - ()
Sea Level Pressure  
Sea Level Pressure 29.98 in    
Wind  
Wind Speed 5 mph (NNW)    
Max Wind Speed 7 mph    
Max Gust Speed -    
Visibility 10 miles    
Events      
Averages and records for this station are not official NWS values.
T = Trace of Precipitation, MM = Missing Value Source: NWS Daily Summary

Daily Weather History Graph

Daily Weather History Graph

Search for Another Location

Airport:

Trip Planner

Search our weather history database for the weather conditions in past years. The results will help you decide how hot, cold, wet, or windy it might be!

Date:

Astronomy

Mar. 01, 2014 Rise Set
Actual Time 8:16 AM AKST 6:48 PM AKST
Civil Twilight 7:35 AM AKST 7:29 PM AKST
Nautical Twilight 6:47 AM AKST 8:17 PM AKST
Astronomical Twilight 5:59 AM AKST 9:06 PM AKST
Moon 8:01 AM AKST (3/1) 8:12 PM AKST (3/1)
Length of Visible Light 11h 54m
Length of Day
10h 31m
New Moon, 0% of the Moon is Illuminated
Mar 1
New Moon
Mar 8
First Quarter
Mar 16
Full
Mar 23
Last Quarter
Mar 30
New

Hourly Weather History & Observations

Time (AKST) Temp. Windchill Dew Point Humidity Pressure Visibility Wind Dir Wind Speed Gust Speed Precip Events Conditions
12:53 AM 28.0 °F 21.7 °F 26.1 °F 92% 30.03 in 10.0 mi NW 5.8 mph - N/A   Mostly Cloudy
1:53 AM 28.9 °F 23.9 °F 27.0 °F 92% 30.03 in 10.0 mi NW 4.6 mph - N/A   Mostly Cloudy
3:53 AM 27.0 °F 20.5 °F 25.0 °F 92% 30.01 in 10.0 mi North 5.8 mph - N/A   Clear
4:53 AM 27.0 °F 20.5 °F 24.1 °F 89% 30.01 in 10.0 mi North 5.8 mph - N/A   Partly Cloudy
5:53 AM 28.9 °F 25.2 °F 26.1 °F 89% 30.00 in 10.0 mi North 3.5 mph - N/A   Mostly Cloudy
6:53 AM 28.9 °F 23.9 °F 26.1 °F 89% 30.00 in 10.0 mi NNE 4.6 mph - N/A   Overcast
7:53 AM 28.0 °F 21.7 °F 27.0 °F 96% 29.99 in 10.0 mi North 5.8 mph - N/A   Mostly Cloudy
8:53 AM 28.9 °F 21.9 °F 27.0 °F 92% 29.99 in 10.0 mi North 6.9 mph - N/A   Clear
9:53 AM 30.9 °F 26.2 °F 28.9 °F 92% 29.99 in 10.0 mi North 4.6 mph - N/A   Clear
10:53 AM 35.1 °F 31.0 °F 28.9 °F 78% 29.99 in 10.0 mi NE 4.6 mph - N/A   Clear
11:53 AM 39.9 °F 35.1 °F 25.0 °F 55% 29.99 in 10.0 mi NNE 6.9 mph - N/A   Clear
12:53 PM 42.1 °F 39.2 °F 23.0 °F 47% 29.99 in 10.0 mi ENE 4.6 mph - N/A   Clear
1:53 PM 45.0 °F 43.5 °F 24.1 °F 44% 29.98 in 10.0 mi East 3.5 mph - N/A   Scattered Clouds
2:53 PM 45.0 °F - 24.1 °F 44% 29.97 in 10.0 mi Calm Calm - N/A   Mostly Cloudy
3:53 PM 44.1 °F 41.5 °F 27.0 °F 51% 29.96 in 10.0 mi ESE 4.6 mph - N/A   Mostly Cloudy
4:53 PM 44.1 °F 41.5 °F 23.0 °F 43% 29.95 in 10.0 mi East 4.6 mph - N/A   Mostly Cloudy
5:53 PM 39.9 °F 36.7 °F 28.0 °F 63% 29.94 in 10.0 mi SW 4.6 mph - N/A   Mostly Cloudy
6:53 PM 34.0 °F 29.8 °F 28.0 °F 79% 29.94 in 10.0 mi West 4.6 mph - N/A   Mostly Cloudy
7:53 PM 34.0 °F 28.0 °F 28.0 °F 79% 29.94 in 10.0 mi SSW 6.9 mph - N/A   Mostly Cloudy
8:53 PM 30.9 °F 26.2 °F 27.0 °F 85% 29.95 in 10.0 mi West 4.6 mph - N/A   Mostly Cloudy
9:53 PM 32.0 °F 27.5 °F 27.0 °F 82% 29.94 in 10.0 mi West 4.6 mph - N/A   Clear
10:53 PM 30.0 °F 25.2 °F 26.1 °F 85% 29.94 in 10.0 mi West 4.6 mph - N/A   Clear
11:53 PM 28.9 °F 22.8 °F 25.0 °F 85% 29.94 in 10.0 mi WNW 5.8 mph - N/A   Clear